    Orbital elements:
    2020 HV1                                                 Earth MOID = 0.0946 AU
    Epoch 2023 Feb. 25.0 TT = JDT 2460000.5                 Veres                   
    M 321.24031              (2000.0)            P               Q                  
    n   0.32435077     Peri.  117.30930     -0.16251382     +0.98324133             
    a   2.0979385      Node   143.04345     -0.94689689     -0.13186566             
    e   0.5123651      Incl.    7.89857     -0.27744466     -0.12588860             
    P   3.04           H   22.56          G   0.15           U   0                  
    Residuals in seconds of arc
    170730 F51  0.3+  0.1-    200523 I52  0.7+  0.1-    200610 C51  0.7+  0.7-
    170730 F51  0.0   0.0     200524 C51  0.1+  0.0     200610 C51  0.5+  0.2-
    170917 F51  0.3-  0.2+    200524 C51  0.9-  0.1-    200611 C51  0.7+  0.0
    170917 F51  0.0   0.1+    200524 C51 (0.6+  1.0-)   200611 C51  0.3+  0.1-
    200321 F51  0.0   0.0     200524 C51  0.2+  0.2-    200611 C51  0.6-  0.1+
    200321 F51  0.4-  0.3-    200524 C51  0.0   0.3+    200611 C51  0.5+  0.6+
    200325 G96  0.3-  0.3+    200524 C51  0.1-  0.9+    200611 C51  0.3-  0.0
    200325 G96  0.4+  0.4+    200524 C51  0.0   0.4-    200612 C51  0.1+  0.8+
    200418 G96  0.2-  0.0     200524 C51 (1.0-  0.4+)   200612 C51  0.3+  0.3-
    200418 G96  0.1-  0.1-    200524 C51  0.3-  0.7-    200612 C51  0.0   0.5+
    200418 G96  0.2-  0.7-    200525 C51  0.2+  0.4+    200612 C51  0.6-  0.5+
    200418 G96  0.1+  0.3-    200525 C51  1.1+  0.9+    200612 C51  0.2-  0.6-
    200418 I52  0.1-  0.3+    200525 C51  0.5+  0.7+    200612 C51  0.5-  0.4+
    200418 I52  0.0   0.9-    200525 C51  0.2-  1.2+    200612 C51  1.5-  0.2-
    200418 I52  0.1-  0.7-    200525 C51  0.3+  0.5-    200612 C51  0.1+  0.6+
    200419 H21  0.2-  0.4-    200525 C51  1.3+  0.6-    200613 H36  0.8-  0.2+
    200419 H21  0.2-  0.2-    200525 C51  0.2+  0.2+    200613 H36  0.2+  0.0
    200419 H21  0.2-  0.5-    200526 C51  1.2+  0.2-    200615 C51  0.0   0.4-
    200419 H21  0.2+  0.4-    200526 C51  0.1-  0.1-    200615 C51  0.9-  0.1-
    200419 V06  0.2-  0.1-    200526 C51  0.3+  0.0     200615 C51  0.3+  0.4+
    200419 V06  0.2+  0.2-    200526 C51  0.2+  1.0+    200615 C51  0.9+  0.5+
    200419 V06  0.2+  0.0     200526 C51  0.9-  0.4+    200616 C51  0.8+  0.8+
    200419 033  0.3-  0.1-    200526 C51  0.8-  0.3-    200616 C51  1.0-  2.8-
    200419 033 (0.4+  1.6+)   200526 C51 (1.5+  0.1-)   200616 C51  0.5-  0.2+
    200420 H21  0.5+  0.4-    200526 C51  0.6-  0.6+    200616 C51  0.7-  0.5-
    200420 H21  0.8+  0.1+    200531 C51  0.0   0.3+    200616 C51  0.3-  0.6-
    200420 H21  0.5+  0.1-    200601 C51 (1.9+  1.6-)   200616 C51  1.6+  0.3-
    200420 F51  0.4-  0.2-    200601 C51  0.1+  0.6+    200616 C51  0.8+  1.7-
    200420 F51  0.1+  0.1+    200601 C51  0.4-  0.1-    200616 C51 (1.5+  1.7+)
    200420 I52  0.0   0.1+    200601 C51  0.2+  0.2-    200616 C51  0.2-  1.0+
    200420 I52  0.2-  0.2+    200601 C51  0.3+  0.1-    200616 C51  0.4+  0.3+
    200420 I52  0.3-  0.2-    200601 C51  0.3-  0.1-    200617 C51  0.0   1.2-
    200420 I52  0.2+  0.2+    200601 C51  0.6+  0.8+    200712 I52  0.0   0.1-
    200420 033  0.4-  0.4-    200601 C51  0.2-  0.2+    200712 I52  0.1-  0.4-
    200420 033  0.1-  0.2-    200602 C51  1.1-  0.3-    200712 I52  0.8+  0.1-
    200420 033  0.2-  0.2-    200602 C51  0.7+  0.3+    200712 I52  0.7+  0.1-
    200420 246 (2.0-  0.3+)   200602 C51  1.0-  0.3-    200717 F52  0.1-  0.2+
    200420 246  1.1-  1.0+    200602 C51  0.5-  1.3-    200809 I52  0.3-  0.2+
    200420 246  0.1-  1.0+    200602 C51  0.5+  0.1-    200809 I52  0.4-  0.3-
    200424 I52  0.2-  0.1+    200602 C51  0.0   0.2+    200809 I52  0.7+  0.0
    200424 I52  0.2+  0.2-    200602 C51  0.6-  0.5-    200812 F52  0.2-  0.4-
    200424 I52  0.4-  0.0     200603 C51  0.7+  0.7-    200812 F52  0.1-  0.3-
    200427 I52  0.0   0.2-    200603 C51  0.8+  0.4-    200812 F52  0.3+  0.4-
    200427 I52  0.1-  0.2-    200603 C51  0.2-  0.3-    200814 F52  0.0   0.1+
    200427 I52  0.0   0.6-    200603 C51  0.3-  2.0+    200814 F52  0.3-  0.1+
    200428 F52  0.1+  0.1+    200603 I52 (2.6+  0.3-)   200814 F52  0.0   0.2-
    200428 F52  0.2-  0.0     200603 I52 (2.4+  0.1-)   200816 F51  0.2+  0.2+
    200428 F52  0.1+  0.0     200603 I52 (1.9+  0.2+)   200816 F51  0.1-  0.1+
    200504 F51  0.1-  0.0     200603 C51  0.1+  0.3-    200816 F51  0.0   0.2+
    200504 F51  0.0   0.1+    200603 C51  0.5-  0.6-    200816 F51 (0.4-  0.0 )
    200504 F51  0.3+  0.1+    200603 C51  0.1-  0.5-    200826 F52  0.3-  0.2-
    200509 F51  0.1-  0.2+    200604 C51  0.1+  0.7-    200826 F52  0.3-  0.1-
    200511 H36  0.2+  0.3+    200604 C51  0.9-  0.5-    200826 F52  0.2-  0.2+
    200511 H36  0.2+  0.1+    200604 C51  0.1+  0.3-    200918 F51  0.3+  0.2-
    200511 H36  0.1-  0.5+    200604 C51  0.4-  0.8+    200918 F51  0.1-  0.2-
    200511 F51  0.1+  0.2+    200604 C51  0.4-  0.6+    200918 F51  0.0   0.3-
    200511 F51  0.1-  0.1+    200604 C51  0.4+  0.6-    200918 F51  0.1+  0.1-
    200511 F51  0.1+  0.2-    200604 C51  0.3-  0.1+    230326 F52  0.4-  0.3+
    200512 G96  0.7+  0.1-    200605 C51  0.8-  0.2-    230326 F52  0.0   0.3+
    200512 G96  0.9+  0.0     200606 C51 (1.8-  0.0 )   230416 V06  0.1+  0.0
    200512 G96  0.3+  0.2+    200606 C51  0.5+  0.9+    230416 V06  0.0   0.2-
    200512 G96  0.5+  0.2+    200606 C51  0.1+  0.0     230417 V06  0.1+  0.1+
    200512 G96  0.1+  0.2-    200606 C51  0.2+  0.2+    230417 V06  0.3-  0.1-
    200512 G96  0.4-  0.6+    200607 C51  0.1+  0.3+    230512 V06  0.0   0.2-
    200512 G96  0.3+  0.1+    200607 C51  0.1-  0.1-    230512 V06  0.1-  0.4-
    200512 G96  0.2+  0.0     200607 C51  1.0+  0.0     230512 V06  0.1+  0.1-
    200515 I52  0.3-  0.1+    200607 C51  0.3-  0.9-    230520 V06  0.3+  0.0
    200515 I52 (0.8+  1.0-)   200607 C51 (0.9-  2.0+)   230520 V06  0.1+  0.3+
    200515 I52  0.6+  0.1-    200607 C51  0.4-  0.6-    230520 V06  0.7+  0.1-
    200515 I52  0.2+  0.0     200607 C51  0.1-  0.0     230524 V06  0.1+  0.0
    200523 I52 (0.2+  1.7-)   200607 C51  0.1+  0.4+    230524 V06  0.2+  0.2+
    200523 I52  0.4+  0.1-    200610 C51  0.2-  0.2+    230524 V06  0.3+  0.2+
    200523 I52  0.2+  0.1+    200610 C51  0.0   0.2+    230524 V06  0.5-  0.3+
    
    Ephemeris:
    2020 HV1                 a,e,i = 2.10, 0.51, 8                   q = 1.0230
    Date    TT    R. A. (2000) Decl.     Delta      r    Elong.  Phase     V
    2023 04 25    10 51 39.0 +29 06 18   0.4100  1.2451   116.7    46.2    22.9
    ...
    2023 05 10    10 55 16.0 +31 21 30   0.3862  1.1577   102.7    58.3    22.9
    ...
    2023 05 18    11 03 12.2 +31 56 54   0.3698  1.1175    96.8    64.0    22.9
    ...
    2023 05 24    11 11 54.4 +32 08 59   0.3550  1.0911    93.1    67.9    22.9
    2023 05 25    11 13 35.2 +32 09 52   0.3523  1.0870    92.6    68.5    22.9
    2023 05 26    11 15 20.0 +32 10 26   0.3496  1.0831    92.0    69.2    22.9
    ...
    2023 06 01    11 27 11.3 +32 07 11   0.3317  1.0618    89.1    72.7    22.8
    ...
    2023 06 09    11 46 48.3 +31 44 07   0.3044  1.0402    86.2    76.8    22.7
    ...
    2023 06 24    12 37 59.2 +29 34 58   0.2461  1.0231    84.6    81.5    22.4
    
    A. U. Tomatic                (C) Copyright 2023 MPC           M.P.E.C. 2023-K146
    


    Read MPEC 2023-K145 Read MPEC 2023-K147


    MPEC number:

    Enter an MPEC number in one of the following forms:

    • 1997-B01 (the full form)
    • J97B01 (the packed version of the full form)
    • B01 (the abbreviated form)